Regional Weather Roundup
Issued by NWS

Home | Current Version | Previous Version | Text Only | Print | Product List | Glossary Off
Versions: 1 2 3 4 5 6 7 8 9 10 11 12 13 14 15 16 17 18 19 20 21 22 23 24 25 26 27 28 29 30 31 32 33 34 35 36 37 38 39 40 41 42 43 44 45 46 47 48 49 50

240
ASUS43 KOAX 232303
RWRNE

WEATHER ROUNDUP FOR NEBRASKA
NATIONAL WEATHER SERVICE OMAHA NE
600 PM CDT WED MAY 23 2018

NOTES: SATELLITE DATA IS BEING USED TO AUGMENT CLOUD COVER ABOVE
       12000 FEET.
       "FAIR" INDICATES FEW OR NO CLOUDS BELOW 12,000 FEET WITH NO
       SIGNIFICANT WEATHER AND/OR OBSTRUCTIONS TO VISIBILITY.


NEZ001>004-019>022-054>056-240000-
NEBRASKA PANHANDLE

CITY           SKY/WX    TMP DP  RH WIND       PRES   REMARKS
SCOTTSBLUFF    PTSUNNY   76  58  53 SE10      29.91S
ALLIANCE       SUNNY     79  57  46 S13       29.91S
CHADRON        MOSUNNY   80  56  43 S8        29.87F
GORDON         FAIR      82  56  41 S8        29.89S
KIMBALL        PTSUNNY   77  40  26 S14       29.96S
SIDNEY         MOSUNNY   71  48  43 W17G29    29.94S
$$

NEZ057>060-069>072-079>082-240000-
SOUTHWEST NEBRASKA

CITY           SKY/WX    TMP DP  RH WIND       PRES   REMARKS
NORTH PLATTE   MOSUNNY   84  59  42 S13G21    29.90F
IMPERIAL       PTSUNNY   86  54  33 SE17      29.88F
LEXINGTON      MOSUNNY   83  63  49 SE18G26   29.93R
MCCOOK         MOSUNNY   85  59  41 SE15G26   29.89F
OGALLALA       PTSUNNY   83  53  35 S13G20    29.88F
$$

NEZ005>010-023>029-035>040-094-240000-
NORTH CENTRAL NEBRASKA

CITY           SKY/WX    TMP DP  RH WIND       PRES   REMARKS
VALENTINE      MOSUNNY   86  55  34 S23G32    29.89S
AINSWORTH      PTSUNNY   82  60  48 S17G23    29.92S
BROKEN BOW     MOSUNNY   83  60  45 SE18G25   29.93S
O`NEILL        RAIN      79  64  59 S18G29    29.96R
ORD            LGT RAIN  71  62  73 E12       29.94S
THEDFORD       MOSUNNY   84  56  37 S18G25    29.92S
$$

NEZ041-046>049-061>064-073>077-083>087-240000-
SOUTH CENTRAL NEBRASKA

CITY           SKY/WX    TMP DP  RH WIND       PRES   REMARKS
GRAND ISLAND   PTSUNNY   84  60  44 S17       29.96R
AURORA         CLOUDY    85  56  36 S14G21    29.96S
HASTINGS       CLOUDY    84  59  42 S13G23    29.97R
HEBRON         CLOUDY    91  53  27 S14G25    29.96S
HOLDREGE       CLOUDY    76  61  59 SE16      29.96S
KEARNEY        CLOUDY    78  62  57 S15       29.97R
YORK           MOSUNNY   88  57  35 S14       29.96S
$$

NEZ011>018-030>034-042>045-240000-
NORTHEAST NEBRASKA

CITY           SKY/WX    TMP DP  RH WIND       PRES   REMARKS
NORFOLK        SUNNY     88  54  31 S13       29.93R
ALBION         CLOUDY    84  60  44 W9        29.97R
BLAIR          SUNNY     90  59  34 SE13G20   29.98S
COLUMBUS       MOSUNNY   91  57  31 S20G25    29.96R
FREMONT        SUNNY     90  56  31 SE12G20   29.97R
TEKAMAH        SUNNY     88  64  44 SE18      29.96S
WAYNE          MOSUNNY   88  57  34 S17G25    29.96R
$$

NEZ050>053-065>068-078-088>093-240000-
SOUTHEAST NEBRASKA

CITY           SKY/WX    TMP DP  RH WIND       PRES   REMARKS
LINCOLN        MOSUNNY   88  58  36 SE17G25   29.97R
OMAHA EPPLEY   MOSUNNY   92  59  33 S20       29.96F HX  91
BEATRICE       PTSUNNY   89  64  42 S20G25    29.97S HX  90
FALLS CITY     LGT RAIN  89  58  34 SE18G29   29.99S
NEBRASKA CITY  PTSUNNY   89  62  39 SE18G25   29.99S
PLATTSMOUTH    SUNNY     89  61  39 S16       29.98S
$$

NEZ044-045-051>053-067-240000-
OMAHA AREA

CITY           SKY/WX    TMP DP  RH WIND       PRES   REMARKS
OMAHA EPPLEY   MOSUNNY   92  59  33 S20       29.96F HX  91
BLAIR          SUNNY     90  59  34 SE13G20   29.98S
FREMONT        SUNNY     90  56  31 SE12G20   29.97R
MILLARD        MOSUNNY   91  62  38 SE13G20   29.96S HX  91
OFFUTT AFB     SUNNY     90  63  40 S20       29.96S HX  90
PLATTSMOUTH    SUNNY     89  61  39 S16       29.98S
WAHOO          FAIR      91  52  26 S18G26    29.97R
$$




USA.gov is the U.S. government's official web portal to all federal, state and local government web resources and services.